Regional Weather Roundup
Issued by NWS

Home | Current Version | Previous Version | Text Only | Print | Product List | Glossary On
Versions: 1 2 3 4 5 6 7 8 9 10 11 12 13 14 15 16 17 18 19 20 21 22 23 24 25 26 27 28 29 30 31 32 33 34 35 36 37 38 39 40 41 42 43 44 45 46 47 48 49 50
000
ASUS43 KMPX 280901
RWRMN
WEATHER ROUNDUP FOR MINNESOTA
NATIONAL WEATHER SERVICE TWIN CITIES/CHANHASSEN MN
400 AM CDT MON JUL 28 2014


NOTE: "FAIR" INDICATES FEW OR NO CLOUDS BELOW 12,000 FEET WITH NO
SIGNIFICANT WEATHER AND/OR OBSTRUCTIONS TO VISIBILITY. N/A MEANS
CURRENT SKY AND/OR WEATHER CONDITIONS ARE NOT AVAILABLE.

MNZ060>063-068>070-281000-
   Twin Cities Metro

CITY           SKY/WX    TMP DP  RH WIND       PRES   REMARKS
TWIN CITIES    CLOUDY    64  57  78 NW7       30.15S
ST PAUL        CLOUDY    63  57  81 NW8       30.15R
CRYSTAL        CLOUDY    64  57  78 NW6       30.14S
BLAINE         CLOUDY    63  61  94 W3        30.15S
LAKEVILLE      CLOUDY    61  57  88 NW3       30.15S
EDEN PRAIRIE   CLOUDY    64  58  80 NW5       30.14S
SOUTH ST PAUL  CLOUDY    65  56  72 NW3       30.14S
LAKE ELMO      CLOUDY    59  55  88 CALM      30.16R
$$
MNZ001>005-007-008-013>017-022>024-027-028-281000-
   Northwest Minnesota

CITY           SKY/WX    TMP DP  RH WIND       PRES   REMARKS
BEMIDJI        CLOUDY    58  55  89 NW5       30.20R
HALLOCK        CLOUDY    57  54  88 CALM      30.24R
ROSEAU         MOCLDY    57  54  88 NW3       30.22R
WARROAD        CLOUDY    57  54  88 NW7       30.21S
THIEF RVR FALL CLOUDY    61  55  82 NW6       30.23R
CROOKSTON      CLOUDY    61  55  82 N8        30.24R
FOSSTON        CLOUDY    57  54  88 NW6       30.23S
DETROIT LAKES  CLOUDY    59  57  94 NW7       30.24R
MOORHEAD       CLOUDY    61  59  94 N6        30.24R
PARK RAPIDS    CLOUDY    60  54  80 N9        30.20S
$$
MNZ006-009>011-018-025>026-281000-
   North Central Minnesota

CITY           SKY/WX    TMP DP  RH WIND       PRES   REMARKS
BAUDETTE       CLEAR     56  54  93 VRB3      30.20R
FLAG ISLAND    MOCLDY    59  55  88 NW8       30.19R
INTL FALLS     PTCLDY    47  45  93 CALM      30.17R
WASKISH        PTCLDY    57  55  94 CALM      30.20R
LONGVILLE      CLOUDY    61  55  82 CALM      30.18S
GRAND RAPIDS   CLOUDY    57  54  88 NW3       30.18R
CRANE LAKE     PTCLDY    46  46 100 CALM      30.17S
ORR            CLOUDY    54  52  94 CALM      30.15R
COOK           CLOUDY    54  52  94 CALM      30.17R
$$
MNZ012-019>021-037-281000-
   Northeast Minnesota

CITY           SKY/WX    TMP DP  RH WIND       PRES   REMARKS
DULUTH         CLOUDY    57  53  86 N7        30.15R
ELY            CLOUDY    54  52  94 CALM      30.14S
HIBBING        CLOUDY    55  52  89 NW3       30.16S
EVELETH        CLOUDY    57  50  77 NW3       30.17R
DULUTH HARBOR  CLOUDY    59  55  88 SW3       30.15R
TWO HARBORS    CLOUDY    55  50  82 CALM      30.12R
SILVER BAY     CLEAR     48  48 100 CALM      30.11S
GRAND MARAIS     N/A     59  51  75 NW9       30.08S
G MARAIS ARPRT   N/A     52  46  82 NW3       30.12S
$$
MNZ029>031-032-039>041-046>048-054>057-064-281000-
   West Central Minnesota

CITY           SKY/WX    TMP DP  RH WIND       PRES   REMARKS
FERGUS FALLS   CLOUDY    61  57  88 NW8       30.22S
MORRIS         CLOUDY    61  57  88 NW6       30.21R
ALEXANDRIA     CLOUDY    62  59  90 N6        30.22R
ELBOW LAKE     CLOUDY    60  58  92 NW7       30.21S
WADENA         CLOUDY    59  55  88 NW5       30.20S
GLENWOOD       CLOUDY    61  59  94 NW5       30.21R
APPLETON       PTCLDY    61  57  88 NW7       30.21R
BENSON         CLOUDY    61  59  94 N5        30.21R
ORTONVILLE     CLOUDY    61  55  82 NW7       30.23R
MADISON        MOCLDY    63  59  88 NW6       30.22R
WILLMAR        MOCLDY    63  59  88 N7        30.21R
$$
MNZ033>034-036-042>043-049>051-058-059-281000-
   Central Minnesota

CITY           SKY/WX    TMP DP  RH WIND       PRES   REMARKS
ST CLOUD       CLOUDY    63  58  83 NW5       30.16S
SAUK CENTRE    CLOUDY    61  58  91 NW6       30.20R
PAYNESVILLE    CLOUDY    59  57  94 W3        30.19S
AITKIN         CLOUDY    63  55  77 CALM      30.16S
PINE RIVER     CLOUDY    61  55  82 NW3       30.21S
BRAINERD       CLOUDY    62  56  80 N7        30.18S
STAPLES        CLOUDY    61  55  82 N7        30.20R
LONG PRAIRIE   CLOUDY    59  55  88 NW3       30.20S
LITTLE FALLS   CLOUDY    61  54  77 CALM        N/A
LITCHFIELD     CLOUDY    63  63 100 NW5       30.19R
BUFFALO        CLOUDY    64  57  79 W6        30.17S
MAPLE LAKE     CLOUDY    64  60  87 NW3       30.18R
$$
MNZ037-044-045-052-053-281000-
   East Central Minnesota

CITY           SKY/WX    TMP DP  RH WIND       PRES   REMARKS
PRINCETON      CLOUDY    63  57  82 NW5       30.16S
MORA           CLOUDY    59  52  77 CALM      30.17S
CAMBRIDGE      CLOUDY    63  54  72 CALM      30.14S
RUSH CITY      CLOUDY    60  55  84 CALM      30.15R
MOOSE LAKE     CLOUDY    55  54  94 CALM      30.14S
HINCKLEY       CLOUDY    59  55  88 N6        30.15R
CLOQUET        CLOUDY    55  54  94 NW5       30.15S
MCGREGOR       CLOUDY    57  55  94 NW3       30.17S
$$
MNZ071>073-080-081-089-090-097-098-281000-
   Southwest Minnesota

CITY           SKY/WX    TMP DP  RH WIND       PRES   REMARKS
MONTEVIDEO     CLOUDY    61  59  94 N6        30.22R
GRANITE FALLS  CLOUDY    61  60  96 NW6       30.22R
CANBY          CLOUDY    60  56  86 NW8       30.23S
MARSHALL       CLOUDY    59  55  88 NW9       30.20S
REDWOOD FALLS  CLOUDY    62  60  93 NW5       30.19R
OLIVIA         CLOUDY    61  59  94 W3        30.18S
PIPESTONE      CLOUDY    57  54  88 N8        30.23R
WINDOM         CLOUDY    61  57  88 NW8       30.19S
WORTHINGTON    PTCLDY    57  54  88 NW9       30.22S
JACKSON        CLOUDY    61  55  82 NW7       30.19S
TRACY          CLOUDY    60  58  90 NW7       30.22R
SLAYTON        CLOUDY    57  56  96 CALM      30.23S
$$
MNZ065>067-074>077-082>085-091>093-281000-
   South Central Minnesota

CITY           SKY/WX    TMP DP  RH WIND       PRES   REMARKS
MANKATO        CLOUDY    61  55  82 N5        30.17R
NEW ULM        MOCLDY    63  63 100 NW5       30.17S
ST JAMES       CLOUDY    61  59  94 W3        30.19R
FAIRMONT       CLOUDY    61  55  82 NW6       30.18R
GLENCOE        MOCLDY    63  58  84 W3        30.16F
FARIBAULT      CLOUDY    64  55  72 CALM      30.16S
OWATONNA       CLOUDY    61  55  82 W5        30.16R
WASECA         PTCLDY    55  52  88 CALM      30.18S
ALBERT LEA     MOCLDY    59  55  88 CALM      30.16S
$$
MNZ078>079-086>088-094>096-281000-
   Southeast Minnesota

CITY           SKY/WX    TMP DP  RH WIND       PRES   REMARKS
ROCHESTER      CLOUDY    58  54  86 N5        30.16R
RED WING       PTCLDY    57  55  94 CALM      30.13S
STANTON        CLOUDY    62  58  86 CALM      30.14R
DODGE CENTER   CLOUDY    59  57  94 CALM      30.16R
WINONA         MOCLDY    57  55  94 W3        30.13S
AUSTIN         CLOUDY    59  55  88 N3        30.16R
PRESTON        PTCLDY    55  55 100 N5        30.15S
$$
ABBREVIATIONS USED IN REMARKS
   TC - TEMPERATURES IN CELSIUS
  WCI - WIND CHILL INDEX
   HX - HEAT INDEX
  VSB - VISIBILITY
$$



USA.gov is the U.S. government's official web portal to all federal, state and local government web resources and services.